www.pogodaiklimat.ru

Погода и климат >> Архив погоды >> Антарктида >> Base Belgrano Ii


ПОГОДА в Base Belgrano Ii

  • Прогноз погоды в Base Belgrano Ii
  • Монитор погоды в Base Belgrano Ii
  • Климат города

АРХИВ ПОГОДЫ в Base Belgrano Ii

Время (UTC), дата Ветер
(напр.,м/с)
 
Видим.   Явления Облачность Т
(С)
Тd
(С)
f
(%)
Тe
(С)
Тes
(С)
Комфортность P
(гПа)
Po
(гПа)
Тmin
(С)
Tmax
(С)
R
(мм)
R24
(мм)
S
(см)
03 11.10 ЮВ 7 20 км ясно -9.3 -12.7 76 -18 -18 994.4 962.4
06 11.10 ЮВ 9 20 км ясно -8.9 -11.3 83 -19 -19 994.4 962.2
09 11.10 ЮВ 9 20 км ясно -8.1 -9.5 90 -18 -18 995.4 963.0
12 11.10 Ю 22 15 км позёмок {метель} ясно -6.3 -7.8 89 -20 -20 993.3 961.0 -12.0 -5.5
15 11.10 Ю 18 20 км {метель} ясно -5.5 -7.3 87 -18 -18 993.2 961.0
18 11.10 штиль 20 20 км 4/0
[Cs]
-3.6 -4.1 96 -5 -3 993.5 961.4
21 11.10 Ю 28 20 км позёмок {метель} 4/0
[Cs]
-8.3 -10.2 86 -23 -23 990.3 958.2
00 12.10 ЮВ 41 10 км позёмок {метель} ясно -8.2 -10.0 87 -25 -25 989.1 957.2 -8.5 -3.5
03 12.10 Ю 31 20 км позёмок {метель} ясно -8.9 -10.4 89 -25 -25 990.0 958.0
06 12.10 Ю 26 10 км позёмок {метель} 3/0
[Cs]
-8.2 -9.2 92 -23 -23 987.9 956.2
09 12.10 ЮВ 31 10 км позёмок {метель} 4/0
[Cs]
-7.4 -8.7 90 -23 -23 987.7 955.7
12 12.10 Ю 18 20 км {метель} 3/0
[Cs]
-5.9 -7.7 87 -18 -18 988.1 956.2 -9.2 -5.9
15 12.10 штиль 0 20 км {метель} 4/0
[Cs]
-4.4 -5.3 93 -6 -2 987.7 955.8
18 12.10 штиль 0 20 км ясно -3.9 -5.7 87 -5 -3 987.1 955.4
21 12.10 штиль 0 20 км ясно -11.9 -13.3 89 -12 -11 986.4 954.2
00 13.10 ЮВ 8 20 км ясно -9.6 -10.8 91 -19 -19 985.0 953.0 -14.5 -1.2
03 13.10 Ю 12 5000 м позёмок {метель} ясно -10.9 -14.2 77 -28 -28 981.0 949.3
06 13.10 ЮВ 13 20 км {метель} 3/0
[Cs]
-9.8 -11.4 88 -22 -22 981.8 950.1
09 13.10 З 15 20 км 5/0
[Cs]
-15.1 -16.9 86 -29 -29 984.2 951.7
12 13.10 СЗ 3 20 км 4/0
[Cs]
-17.7 -19.7 84 -24 -22 988.2 955.4 -22.3 -9.5
15 13.10 В 2 20 км 1/0
[Cs]
-18.9 -21.0 83 -23 -20 991.3 958.4
18 13.10 штиль 0 20 км 3/0
[Ci]
-18.8 -22.6 72 -19 -17 992.7 959.8
21 13.10 ЮЗ 5 20 км 4/0
[Ci]
-23.0 -25.5 80 -34 -34 опасность
обморожения
994.3 960.6
00 14.10 Ю 9 20 км ясно -25.2 -29.3 69 -40 -40 опасность
обморожения
995.5 961.6 -25.2 -17.7
03 14.10 Ю 10 20 км ясно -25.0 -30.6 59 -40 -40 опасность
обморожения
995.8 961.8
06 14.10 Ю 8 20 км ясно -24.5 -31.6 52 -38 -38 опасность
обморожения
995.8 961.8
09 14.10 Ю 6 20 км ясно -22.4 -30.0 50 -34 -33 опасность
обморожения
995.9 961.8
12 14.10 штиль 0 20 км 4/0
[Cs]
-17.4 -27.1 43 -17 -14 995.5 961.6 -25.5 -17.4
15 14.10 В 5 20 км 3/0
[Ci fib]
-19.0 -24.9 60 -29 -27 995.8 961.8
18 14.10 ЮВ 5 20 км 3/0
[Ci fib]
-19.3 -25.3 59 -29 -28 995.2 961.2
21 14.10 Ю 10 20 км ясно -21.4 -29.9 46 -36 -36 опасность
обморожения
994.8 960.8
00 15.10 Ю 10 20 км ясно -22.4 -27.1 65 -37 -37 опасность
обморожения
994.8 961.0 -23.3 -17.3
03 15.10 ЮВ 8 20 км ясно -22.1 -26.7 66 -35 -35 опасность
обморожения
994.6 960.8
06 15.10 ЮВ 8 20 км ясно -21.4 -25.9 67 -34 -34 опасность
обморожения
994.2 960.5
09 15.10 ЮВ 7 20 км ясно -19.4 -24.3 65 -31 -30 опасность
обморожения
994.5 960.6
12 15.10 штиль 0 20 км ясно -17.1 -19.1 84 -17 -13 995.0 961.3 -23.0 -17.1
15 15.10 штиль 0 20 км ясно -17.9 -19.9 84 -18 -14 996.0 962.2
18 15.10 штиль 0 20 км 4/0
[Cs]
-19.4 -21.6 83 -19 -17 997.0 963.2
09 16.10 ЮЗ 7 20 км 10/0 2000 м
[Ac As Cs]
-23.2 -25.7 80 -36 -36 опасность
обморожения
1000.0 965.7
12 16.10 З 10 20 км 10/0 2000 м
[Ac As Cs]
-22.6 -27.4 65 -37 -37 опасность
обморожения
1000.7 966.2 -25.0 -22.6
15 16.10 З 7 20 км 6/3 900 м
[Sc Cs]
-22.5 -25.0 80 -35 -34 опасность
обморожения
1001.0 966.6
18 16.10 Ю 5 20 км 6/3 900 м
[Sc Ac As Cs]
-22.3 -24.7 81 -33 -32 опасность
обморожения
1000.6 966.2
21 16.10 ЮВ 3 20 км 9/1 900 м
[Sc Ac As]
-23.8 -26.4 79 -31 -31 опасность
обморожения
1000.5 966.1
00 17.10 ЮВ 5 20 км 9/1 900 м
[Sc Ac As Cs]
-24.1 -26.7 79 -35 -35 опасность
обморожения
999.0 964.6 -25.0 -21.2
03 17.10 ЮВ 4 20 км 9/1 900 м
[Sc Ac As Cs]
-24.7 -27.3 79 -35 -35 опасность
обморожения
997.5 963.2
06 17.10 штиль 0 20 км 3/1 900 м
[Sc Ac As]
-24.9 -27.5 79 -25 -25 996.4 962.2
09 17.10 Ю 12 20 км 1/1 900 м
[Sc]
-21.6 -24.0 81 -37 -37 опасность
обморожения
994.4 960.2
12 17.10 Ю 15 20 км ясно -19.0 -23.8 66 -35 -35 опасность
обморожения
994.5 960.6 -26.2 -17.3
15 17.10 Ю 12 20 км ясно -17.8 -22.3 68 -32 -32 опасность
обморожения
993.1 959.3
18 17.10 ЮВ 10 20 км ясно -16.0 -17.9 85 -28 -28 992.5 958.8
21 17.10 ЮВ 14 20 км ясно -19.2 -21.4 83 -35 -35 опасность
обморожения
991.3 957.7
00 18.10 Ю 14 20 км 3/0
[Ci]
-19.6 -22.7 76 -35 -35 опасность
обморожения
989.4 956.0 -19.6 -16.0

 

Местоположение метеостанции Base Belgrano Ii (Антарктида): широта -77.86 долгота -34.61 высота над уровнем моря 251 м.

В архиве по умолчанию представлена погода в Base Belgrano Ii за последнюю неделю. Архивные данные за месяц целиком и за предыдущие месяцы, начиная с января 2011 года, Вы можете получить, выбрав интересующий диапазон дат из раскрывающегося списка и нажав кнопку "Ввод!".


*Определитесь, кто Вы:
робот инопланетянин человек

Внимание! Время в таблицах - всемирное. Для получения местного времени необходимо прибавить поправку, которая в Base Belgrano Ii равна 0 ч.

Смотрите также архив погоды в соседних городах и на ближайших метеорологических станциях:

Погода в Halley (Антарктида) (332 км)
Погода в Limbert Aws (Антарктида) (653 км)
Погода в Nordenskiold Base (Антарктида) (790 км)
Погода в Kohnen Ep9 (Антарктида) (941 км)
Погода в Butler Island (Антарктида) (953 км)
Погода в Sky Blue (Антарктида) (1008 км)
Погода в Soerasen (Антарктида) (1009 км)
Погода в Neumayer Station (Антарктида) (1110 км)
Погода в SANAE (Антарктида) (1130 км)
Погода в Fossil Bluff (Антарктида) (1205 км)

Пояснения к столбцам:

Ветер - указаны скорость ветра в м/с - средняя за 10 мин, порывы в срок и между сроками (в фигурных скобках) и направление, откуда дует ветер: С - северный, СВ - северо-восточный, В - восточный, ЮВ - юго-восточный, Ю - южный, ЮЗ - юго-западный, З - западный, СЗ - северо-западный.
Видимость - горизонтальная дальность видимости в метрах или километрах. При видимости от 1 до 10 км при отсутствии осадков обычно наблюдается дымка, при ухудшении видимости до 1 км и менее - туман. В сухую погоду видимость может ухудшаться дымом, пылью или мглою.
Явления - указаны атмосферные явления, наблюдавшиеся в срок или в последний час перед сроком; фигурными скобками обозначены явления, наблюдавшиеся между сроками (за 1-3 часа до срока); квадратными скобками обозначены град или гололедные отложения с указанием их диаметра в мм.
Облачность - указаны через наклонную черту общая и нижняя облачность в баллах и высота нижней границы облаков в метрах; квадратными скобками обозначены формы облаков: Ci - перистые, Cs - перисто-слоистые, Cc - перисто-кучевые, Ac - высококучевые, As - высокослоистые, Sc - слоисто-кучевые, Ns - слоисто-дождевые, Cu - кучевые, Cb - кучево-дождевые. Подробнее классификацию облаков см. в Атласе облаков (PDF).
T - Температура воздуха - температура, измеренная на высоте 2 м над землей.
Td - Температура точки росы - температура, при понижении до которой содержащийся в воздухе водяной пар достигнет насыщения.
f - Относительная влажность воздуха - влажноcть воздуха, измеренная на высоте 2 м над землей.
Te - Эффективная температура - температура, которую ощущает одетый по сезону человек в тени. Характеристика душности погоды. При расчете учитывается влияние влажности воздуха и скорости ветра на теплоощущения человека.
Tes - Эффективная температура на солнце - температура, которую ощущает человек, с поправкой на солнечный нагрев. Характеристика знойности погоды. Зависит от высоты солнца над горизонтом, облачности и скорости ветра. Ночью, в пасмурную погоду, а также при ветре 12 м/с и более поправка равна нулю.
P - Атмосферное давление - приведенное к уровню моря атмосферное давление.
Po - Атмосферное давление - измеренное на уровне метеостанции атмосферное давление.
Tmin - Минимальная температура - минимум температуры воздуха на высоте 2 м над землей.
Tmax - Максимальная температура - максимум температуры воздуха на высоте 2 м над землей.
R - Количество осадков - Количество выпавших осадков за период времени, мм. При наведении курсора мыши на число - период времени, за который выпало указанное количество осадков.
R24 - Количество осадков - Количество выпавших осадков за 24 часа, мм.
S - Снежный покров - Высота снежного покрова, см. При наведении курсора мыши на число - состояние снежного покрова и степень покрытия местности в баллах.